Theta_e
299 300 300 301 301 300 300 301 301 301 301 302 302 301 301 301 300 296 291 293 286 277 281 284 284 281 279 279 274 273 274 273 272 266 265 266 260 268 264 269 269 267 263 260 257 256 261 275 275 271 275 279 278 278
299 299 299 300 300 301 301 301 301 301 301 301 302 302 302 301 301 300 291 295 294 282 278 288 287 288 286 285 279 273 276 270 276 268 267 266 262 260 263 261 274 266 270 265 268 267 276 276 277 279 279 276 278 278
298 298 298 298 299 299 299 300 301 301 301 301 301 301 302 301 301 299 293 293 291 285 285 283 281 288 290 289 287 276 275 281 279 279 271 269 264 267 262 263 268 273 274 271 270 274 275 277 278 279 279 279 280 279
297 297 297 297 298 298 298 299 299 299 299 300 300 301 301 301 301 300 293 294 290 286 279 278 286 284 289 289 288 286 284 284 283 281 275 272 268 276 269 274 273 274 274 272 272 276 277 277 278 279 279 279 279 279
297 297 297 297 297 298 297 298 298 298 298 298 299 299 300 300 301 299 296 295 295 286 279 272 279 284 287 288 287 286 284 281 277 278 278 273 275 273 272 276 275 278 275 273 271 277 276 278 279 279 278 278 279 278
296 296 297 296 297 297 297 297 297 297 297 297 297 298 299 299 300 294 286 294 295 293 283 277 280 279 284 286 285 284 285 281 282 280 279 277 280 278 273 268 278 279 280 280 277 280 279 281 280 279 278 278 278 277
296 296 296 296 296 296 297 297 297 296 296 296 296 297 297 298 294 287 285 287 296 293 284 278 277 276 281 281 280 279 282 282 281 281 279 277 277 281 275 271 278 279 279 280 280 280 278 279 278 278 278 274 272 271
296 296 296 295 295 296 296 295 295 295 295 295 296 296 297 297 295 290 293 296 296 287 284 277 275 271 276 280 279 282 281 282 282 280 272 277 278 279 273 277 279 280 280 279 279 280 280 276 274 272 271 269 266 268
294 295 295 295 295 295 294 294 294 294 294 295 295 296 291 289 284 284 296 296 293 287 278 277 272 266 277 278 279 279 281 276 280 276 274 277 272 271 274 277 277 278 278 279 274 271 270 271 271 269 267 265 265 266
294 294 294 293 293 293 293 293 293 294 294 294 290 285 282 286 293 294 289 284 284 283 283 276 268 270 275 273 270 273 277 274 271 273 275 274 272 278 279 278 277 276 276 273 267 265 263 264 268 266 264 264 264 265
293 293 292 292 290 290 290 291 292 293 292 286 283 282 283 292 287 284 279 278 279 276 279 276 275 271 272 270 270 273 271 272 268 269 271 265 266 275 279 278 277 274 271 266 267 266 265 265 265 264 263 262 262 260
290 290 290 290 290 290 291 291 292 289 283 286 286 287 286 283 281 277 275 270 274 269 267 272 270 274 275 276 272 274 271 271 267 264 266 263 272 274 274 273 267 267 265 261 261 262 262 263 262 261 259 255 255 255
289 289 289 289 290 290 291 291 291 291 290 286 281 278 278 276 272 271 266 270 262 271 271 267 269 274 277 277 274 273 270 268 270 269 264 265 267 270 266 262 257 257 257 257 257 257 258 256 256 255 253 250 249 248
286 287 288 289 289 290 290 291 291 289 283 277 275 270 271 268 272 272 264 269 270 268 270 268 270 270 272 273 274 270 271 268 265 264 260 262 268 268 262 259 256 254 255 256 254 254 254 254 253 252 251 248 246 246
287 287 287 287 288 289 290 290 290 286 280 274 272 269 267 264 261 259 260 264 267 268 274 269 268 274 269 271 273 267 264 263 264 261 262 265 266 263 260 257 254 253 253 252 249 250 252 252 251 248 245 243 243 242
286 286 282 287 287 288 288 288 285 283 280 276 273 265 269 265 258 258 257 263 267 276 275 274 272 270 269 271 267 264 263 260 262 259 256 256 257 257 256 254 250 251 250 249 248 247 247 246 246 246 241 241 241 241
283 276 285 286 286 284 285 278 279 278 275 272 266 251 259 267 269 266 266 264 269 271 270 271 267 265 270 268 266 268 263 261 255 254 256 257 257 255 253 252 249 249 247 246 243 243 242 240 239 242 245 245 242 242
271 278 286 285 281 277 268 268 273 270 264 262 262 254 252 253 258 258 262 266 271 272 271 269 270 267 266 264 260 260 254 252 254 255 254 253 252 251 250 248 247 247 244 243 243 242 244 246 249 250 243 243 243 245
276 277 282 283 279 273 268 265 264 262 258 256 259 260 257 254 256 258 260 263 264 266 268 269 268 267 266 258 259 259 259 258 256 253 251 250 250 249 249 248 248 246 244 243 244 246 248 250 250 247 245 244 246 245
281 280 280 277 275 266 261 262 266 262 257 257 260 258 258 255 254 253 255 259 262 265 265 265 260 255 256 254 253 254 255 255 253 252 250 250 250 249 249 249 249 247 248 247 246 247 245 245 245 244 244 245 245 245
274 274 275 267 263 259 256 255 255 258 258 256 257 259 257 259 256 254 256 255 259 253 255 253 251 251 251 251 252 253 252 253 253 254 253 249 249 249 249 251 251 249 250 247 245 244 244 244 245 244 244 245 245 246
268 275 268 270 261 256 255 255 254 255 255 251 254 254 251 250 250 251 252 256 250 246 245 247 249 251 251 249 248 248 250 252 252 252 253 253 251 250 249 247 246 244 243 242 242 243 243 244 245 247 248 248 253 253
268 268 263 261 258 255 252 255 252 255 253 252 250 250 249 247 248 252 252 250 248 246 245 246 246 247 248 249 250 250 249 252 250 249 247 245 243 242 244 243 242 243 243 244 243 244 246 251 250 249 251 253 253 253
262 255 254 253 252 251 252 252 255 254 253 250 251 248 247 244 249 252 247 245 246 247 247 247 248 250 250 250 250 249 246 244 245 244 241 246 245 243 241 242 241 242 244 244 245 246 247 248 251 249 250 252 252 252
257 247 249 246 250 250 252 252 253 253 249 248 250 248 245 243 248 248 247 246 249 248 249 249 249 250 249 249 248 246 243 242 244 246 245 240 240 242 243 242 243 245 246 248 248 248 247 246 248 250 251 252 251 252
246 241 242 237 243 245 247 249 249 248 250 249 247 248 247 250 250 245 244 244 246 246 246 246 246 247 247 244 244 244 245 241 240 243 243 241 243 244 244 247 247 250 249 248 248 248 248 249 250 250 252 253 254 253
244 240 240 239 239 241 242 244 247 249 248 247 246 249 251 249 246 244 244 245 244 244 243 243 242 243 244 244 243 242 240 239 244 246 247 247 248 248 250 249 248 250 248 248 249 249 249 250 252 252 253 253 253 253
238 238 239 240 239 237 239 240 241 244 245 244 245 246 247 245 244 247 245 245 244 244 243 241 242 243 242 244 246 248 248 248 251 251 249 250 247 247 248 249 249 258 250 249 249 250 250 251 252 252 253 252 253 253
238 239 240 242 238 240 239 240 240 241 241 240 243 245 244 245 245 245 248 248 248 247 246 248 250 251 252 253 254 254 253 253 253 250 247 246 247 249 246 245 245 246 247 247 254 257 253 252 251 251 251 252 252 250
240 238 244 247 246 244 242 240 241 240 241 241 241 244 246 248 249 249 248 249 248 248 249 249 251 253 253 253 252 252 251 251 251 251 248 248 249 251 249 249 249 249 248 247 251 252 255 250 248 245 245 246 245 246
238 238 240 243 243 241 239 237 238 239 240 241 241 243 246 246 249 251 252 250 250 251 252 253 252 252 251 251 250 251 252 252 251 251 250 251 251 250 250 250 251 249 247 246 247 246 248 247 246 246 246 246 245 246
242 240 243 245 242 237 234 235 234 237 240 241 242 243 245 246 248 250 252 252 251 250 251 251 250 250 251 252 252 252 253 252 253 254 253 253 252 251 252 254 254 253 251 250 249 248 247 247 248 248 248 247 247 247
242 241 242 243 244 244 243 242 245 245 246 246 245 245 245 248 247 250 254 252 250 249 250 250 251 252 252 252 252 252 253 253 253 257 257 257 256 256 255 254 253 252 251 251 251 250 249 248 247 247 246 246 246 246
Wind_Speed
21 17 17 20 22 19 20 18 20 18 16 18 20 19 18 17 16 6 2 4 5 3 5 3 2 5 3 4 6 4 6 4 3 3 5 5 4 7 2 4 8 9 8 6 3 1 9 8 4 7 8 3 5 6
23 19 16 15 14 18 19 18 17 16 16 18 18 20 21 20 20 14 3 4 4 3 4 2 4 4 4 7 8 3 5 6 6 4 1 4 1 1 5 5 2 1 9 8 12 10 6 7 8 9 6 6 6 7
24 25 21 20 18 16 11 15 16 17 15 15 16 17 19 20 20 14 4 4 3 2 3 4 5 7 3 4 7 7 3 6 5 5 5 4 4 5 4 6 2 5 3 5 1 6 10 9 9 9 8 9 10 9
25 22 23 22 22 19 16 14 11 11 13 14 17 16 18 19 19 19 5 6 4 3 3 6 1 5 6 6 6 5 6 3 5 3 3 4 3 5 5 6 7 9 5 8 9 14 12 12 11 13 10 9 9 8
25 24 22 21 22 21 19 20 17 14 12 9 9 13 13 15 17 11 5 7 7 6 3 3 2 5 5 10 13 8 8 6 3 3 3 6 3 3 2 1 8 13 18 12 15 16 10 11 9 7 8 9 10 9
23 21 20 20 19 20 21 15 14 13 12 12 12 12 12 13 11 3 3 8 11 7 3 4 3 4 7 13 15 14 12 4 4 4 3 3 6 6 5 6 16 18 16 18 17 16 14 15 8 8 8 10 10 8
22 21 19 18 16 16 16 16 15 13 12 11 11 12 12 12 4 4 3 3 16 9 3 3 4 3 2 2 1 2 4 4 5 5 6 5 3 7 4 11 22 15 12 13 12 12 13 13 10 7 6 4 5 5
22 21 18 17 16 15 15 13 11 11 11 12 13 13 13 12 9 8 5 9 9 2 3 3 3 2 3 4 4 3 4 5 5 4 2 7 2 4 9 15 18 14 13 13 15 13 16 1 5 4 4 5 3 4
15 20 18 15 15 14 13 13 13 12 12 11 11 14 2 4 3 3 13 15 5 4 3 3 5 5 1 2 3 2 3 4 2 5 5 6 4 9 15 17 13 14 12 17 0 3 3 5 6 6 5 4 5 5
14 16 17 14 14 14 13 12 12 10 10 11 3 3 4 5 8 12 7 4 7 7 5 5 2 6 5 4 2 4 3 4 4 6 3 6 11 20 15 12 10 9 9 8 5 3 1 4 7 6 6 2 3 4
14 15 17 15 11 10 10 12 13 12 8 3 3 4 2 3 2 4 5 6 5 5 6 5 9 7 3 6 5 3 4 4 4 6 9 5 7 17 19 18 10 5 7 4 4 5 5 4 6 6 5 4 4 5
5 9 10 8 8 9 9 11 13 8 4 5 3 3 0 3 4 6 6 2 5 8 3 6 5 6 4 3 4 5 6 5 7 3 5 5 12 8 9 8 5 7 8 7 3 7 6 7 5 7 7 5 4 5
5 5 6 7 8 10 13 13 14 13 11 2 2 3 4 4 7 9 7 3 2 4 5 3 1 5 3 3 3 6 8 8 5 6 6 8 5 7 6 6 5 4 7 8 6 6 7 7 5 4 6 3 5 3
1 2 6 8 9 10 13 16 16 12 4 3 5 7 6 4 5 4 6 6 5 4 8 4 4 5 3 5 4 5 4 4 6 5 9 5 9 7 7 5 9 7 7 8 7 7 7 6 5 5 5 4 4 1
6 6 9 10 11 11 13 13 14 3 3 4 3 5 5 3 2 1 2 2 2 2 7 3 3 3 2 4 5 3 4 5 6 8 6 5 6 9 9 6 7 8 7 7 5 6 6 4 4 3 2 1 2 1
9 7 6 7 6 12 11 10 5 3 4 5 5 2 2 3 4 4 3 2 3 5 2 1 4 4 5 5 6 8 6 8 7 5 2 1 2 5 5 5 6 6 7 7 6 5 5 5 4 2 3 3 4 4
9 3 11 9 2 11 12 3 2 5 4 4 2 2 2 3 3 3 3 2 2 1 3 3 6 8 2 3 5 4 6 5 2 1 2 5 4 6 6 7 7 8 7 6 5 5 5 3 3 3 3 3 3 4
2 4 13 4 5 5 4 6 2 2 3 3 1 3 3 1 3 2 2 2 2 1 1 1 2 4 4 5 4 3 2 1 3 4 4 4 5 5 5 7 5 7 6 4 4 4 4 5 4 2 3 3 3 3
2 2 11 10 5 4 3 3 4 4 1 1 2 2 2 0 2 2 1 2 2 2 0 2 3 2 1 3 3 1 2 0 2 2 2 3 4 5 6 5 5 5 5 4 3 2 2 4 3 3 2 1 1 2
7 9 7 12 6 4 5 3 3 3 2 1 2 3 1 1 2 2 2 3 2 0 1 2 0 2 3 2 2 2 2 1 3 3 2 1 2 3 4 4 3 4 4 3 2 2 2 2 1 2 2 2 2 2
6 4 9 6 4 7 5 2 4 2 2 3 2 1 1 1 1 3 3 4 3 4 2 3 2 2 2 2 2 2 3 3 1 1 3 3 2 3 2 2 4 2 2 2 3 0 2 2 3 2 2 1 2 3
2 8 3 4 5 4 5 3 3 0 3 1 2 2 3 3 3 2 3 4 4 1 2 3 2 3 1 2 2 3 3 2 2 3 6 9 5 3 2 2 3 2 2 3 3 3 3 3 3 2 1 2 2 2
7 4 5 5 6 6 2 1 4 3 3 1 2 3 3 2 2 3 4 3 2 1 2 2 3 2 2 1 0 1 4 2 3 3 2 3 3 2 4 2 2 4 1 2 2 3 2 3 1 1 1 1 1 2
11 8 7 5 5 2 1 4 2 2 3 4 3 2 3 2 5 3 4 2 2 2 1 2 2 1 1 1 2 2 2 2 2 3 2 3 3 1 2 3 2 2 3 3 3 2 2 2 2 0 1 1 2 2
7 11 7 8 5 5 5 4 4 4 3 3 3 3 3 3 3 5 3 3 3 2 3 3 2 3 2 1 1 2 2 2 2 3 2 2 3 3 3 2 3 4 3 3 2 2 2 2 2 2 2 2 3 4
11 6 5 2 4 4 3 2 4 2 2 3 2 1 1 1 5 3 2 3 3 2 3 3 3 4 3 1 1 1 3 2 3 3 3 3 3 4 3 2 1 4 3 3 3 3 3 3 3 4 4 5 6 6
8 6 4 0 2 0 3 2 1 2 5 4 3 5 3 5 4 3 3 1 2 2 2 2 2 1 2 3 3 3 2 2 3 3 2 2 2 3 3 2 2 4 1 3 3 3 4 4 4 4 5 5 5 6
3 4 4 6 4 1 3 3 4 4 3 3 2 6 4 4 1 3 2 2 3 4 4 3 3 3 3 3 2 1 2 2 4 3 1 1 2 2 2 2 3 6 3 3 3 3 4 4 5 5 6 7 8 5
4 4 1 5 4 5 4 3 1 1 2 1 2 3 3 0 2 2 3 4 5 2 2 3 2 2 2 1 1 2 2 3 5 6 5 3 4 3 2 3 3 3 3 3 6 6 7 6 6 7 9 8 7 4
4 2 4 4 4 5 2 2 1 1 1 1 1 1 1 1 2 2 4 3 3 3 2 2 2 3 3 3 2 5 5 4 4 3 2 2 3 4 4 4 4 4 3 2 4 5 7 4 5 4 4 4 3 4
3 3 2 3 3 1 1 2 1 1 1 1 1 2 2 2 2 1 8 5 3 3 5 6 6 6 5 6 4 3 3 2 3 2 2 4 5 5 5 5 5 4 3 3 3 3 4 4 4 6 7 8 8 8
3 3 3 4 3 1 0 2 1 2 2 2 2 2 2 1 4 4 7 7 7 8 8 6 7 6 5 3 2 1 2 4 4 5 7 5 5 5 6 5 5 4 4 4 4 4 5 7 7 7 8 10 10 10
2 1 1 1 2 2 3 3 1 2 1 2 3 2 2 3 5 2 1 2 2 2 3 4 4 5 6 5 4 3 4 4 7 10 11 12 12 11 7 4 3 3 5 4 6 6 8 9 9 10 10 11 11 11
Wind_Direction
250 243 246 246 243 235 232 222 223 231 222 220 223 214 210 206 209 144 184 168 128 160 268 196 243 141 95 105 133 208 66 339 48 121 138 208 162 223 123 212 178 161 165 202 87 174 271 194 95 164 211 180 188 202
232 235 233 240 226 245 242 247 238 227 222 235 221 216 212 208 213 190 158 153 110 144 232 325 286 294 171 173 126 228 164 163 163 117 198 109 240 58 161 232 187 272 199 182 186 204 215 194 184 222 170 183 206 199
241 233 240 243 231 222 232 224 224 230 229 224 224 225 218 214 211 196 132 146 120 137 249 231 211 246 166 167 152 129 291 174 181 171 161 190 194 115 161 241 149 267 168 213 50 213 236 238 230 226 208 218 234 226
231 235 233 235 231 230 229 220 209 209 215 230 232 227 227 222 220 210 176 161 140 132 231 272 84 216 199 161 172 157 153 131 130 123 138 149 176 169 211 220 195 219 150 226 255 257 259 265 250 252 240 230 241 241
226 235 232 235 229 226 232 223 219 209 210 220 210 218 237 238 231 217 189 177 182 177 203 258 321 249 203 189 196 166 151 140 134 123 187 204 197 115 265 134 234 230 235 238 248 247 224 244 244 222 216 233 235 239
229 226 228 227 229 225 224 216 208 211 219 225 226 225 219 231 232 158 242 185 186 183 195 205 253 195 200 197 198 202 202 166 144 168 189 220 224 166 201 226 240 241 237 236 246 255 243 250 250 222 221 242 235 215
227 222 215 208 212 222 221 209 205 207 214 224 235 239 238 228 180 181 199 184 177 164 182 212 229 278 251 133 147 102 151 186 187 210 214 208 184 185 221 241 251 244 236 244 233 244 257 246 240 233 200 111 84 87
230 205 205 204 202 202 201 199 213 215 220 230 230 230 232 235 244 232 170 126 135 162 208 235 199 65 202 171 167 150 171 187 193 200 324 208 161 201 240 242 248 244 236 240 242 233 242 219 119 132 101 126 135 170
228 190 189 190 187 187 191 194 206 214 220 222 224 227 244 206 192 200 168 179 163 181 219 170 161 220 196 101 110 97 145 207 166 209 207 153 188 217 221 233 235 228 223 245 149 101 122 187 181 165 149 165 176 189
191 199 182 175 180 183 188 192 197 207 203 203 139 164 213 193 183 139 151 198 197 185 220 188 111 180 140 150 165 123 186 195 209 227 120 212 228 237 241 235 231 226 213 146 132 264 181 228 195 186 202 162 173 163
179 172 171 174 178 197 212 218 216 188 189 120 178 207 196 179 90 176 197 208 179 201 183 186 178 145 267 150 163 199 177 181 204 235 180 214 243 234 235 237 236 177 152 129 121 106 111 143 170 159 148 129 112 100
116 175 176 178 201 211 209 214 211 169 162 164 123 80 228 182 211 205 184 242 174 206 217 155 198 153 163 141 130 178 181 189 218 132 157 227 243 222 208 194 144 144 135 126 120 127 116 101 86 105 107 112 107 113
163 223 228 235 227 224 209 205 192 164 108 86 128 184 187 203 223 185 190 215 163 174 166 167 153 126 138 180 175 180 203 208 108 187 218 224 227 212 170 134 111 91 108 116 101 87 100 104 88 99 121 109 124 120
22 217 224 228 233 228 220 209 202 161 107 191 180 195 203 210 232 185 194 201 213 143 154 139 122 146 169 178 181 210 178 128 201 206 226 226 217 201 152 129 126 161 146 131 128 120 118 121 111 97 105 136 134 201
10 312 262 240 232 222 215 217 219 143 164 181 179 228 210 248 57 208 255 94 302 150 135 80 57 136 153 198 186 106 181 223 207 222 223 221 199 147 152 148 140 141 132 121 112 115 115 110 109 97 19 117 148 227
354 38 15 1 296 255 236 229 204 138 203 188 202 114 161 90 323 7 353 346 296 126 63 98 160 184 200 195 171 201 167 215 236 217 288 348 55 73 109 113 107 113 119 121 115 117 117 118 124 145 315 292 248 215
46 42 333 314 147 68 33 101 120 211 230 181 174 3 102 119 142 161 161 238 287 11 163 155 195 202 119 195 187 176 209 226 281 340 2 359 92 117 118 113 118 117 115 119 118 116 128 125 101 72 58 285 266 236
64 320 359 58 105 64 36 22 56 77 84 35 142 315 355 34 108 34 9 358 183 184 276 227 137 184 206 186 232 216 131 142 35 26 30 42 74 83 85 117 113 116 119 113 115 137 130 137 135 152 213 262 314 352
236 112 30 24 74 87 84 43 25 103 65 152 118 60 41 322 350 28 23 338 340 347 163 151 245 220 250 25 58 49 75 78 137 120 74 39 67 96 108 103 97 99 110 126 145 162 161 170 154 168 198 101 147 289
52 53 39 34 44 79 74 40 339 92 97 88 73 72 20 45 275 347 31 15 347 264 196 189 67 33 10 49 6 13 352 51 118 95 70 66 89 100 114 124 128 128 120 101 99 144 99 54 1 167 162 169 130 286
52 355 37 61 53 59 83 25 49 46 84 72 16 11 69 9 6 41 16 346 55 31 57 21 44 59 57 27 347 350 11 358 82 252 139 144 190 122 111 102 114 104 134 142 139 327 93 177 219 197 150 245 229 236
336 22 54 48 77 54 76 1 112 95 69 136 58 39 36 35 16 4 289 48 49 7 357 333 352 350 31 19 3 2 326 342 36 58 84 118 136 144 161 166 117 138 148 174 149 172 229 232 212 202 178 257 268 266
19 29 52 21 76 46 328 22 72 5 79 319 18 60 25 16 274 304 76 65 78 350 303 315 312 302 328 322 258 51 21 33 76 57 57 80 84 93 98 136 161 134 112 293 184 177 209 207 216 196 265 311 300 289
33 45 31 41 35 69 353 38 60 64 53 34 62 60 358 299 315 55 79 40 279 269 323 333 300 299 266 337 43 20 355 38 68 46 36 81 87 32 156 197 189 192 188 171 163 188 204 214 212 202 262 271 281 277
68 5 15 8 8 28 42 23 12 52 50 335 63 22 337 349 64 55 62 324 347 4 359 330 321 356 358 37 351 338 316 126 131 130 267 146 113 39 7 307 250 228 173 132 192 193 239 222 214 236 248 254 273 283
69 337 54 319 346 58 360 57 31 14 357 68 37 274 335 40 63 46 302 286 307 336 351 350 340 342 346 243 188 308 258 171 116 92 272 184 168 138 163 156 328 305 203 166 150 195 223 221 222 241 258 269 273 279
55 342 330 278 132 57 24 344 293 26 48 28 350 347 357 65 55 293 289 321 302 289 264 256 225 244 259 293 289 277 279 187 187 192 224 183 203 192 164 170 228 245 216 187 191 184 208 229 241 247 260 267 252 253
121 26 37 324 12 19 105 47 41 39 10 352 272 32 59 43 7 314 259 277 251 291 289 269 236 228 242 244 238 263 341 292 268 261 254 48 38 26 350 294 272 281 244 221 212 214 211 225 243 253 258 262 272 253
36 332 298 359 19 46 51 49 67 34 348 7 74 65 82 87 255 283 299 312 300 302 1 1 338 292 257 234 67 47 33 5 31 43 41 357 350 316 344 321 303 295 278 277 278 257 233 230 235 240 250 255 262 254
349 358 337 7 46 35 19 4 14 355 329 10 310 244 165 218 243 251 295 316 356 351 322 295 300 347 5 19 15 55 32 37 43 73 106 300 262 286 303 302 301 291 284 275 276 286 298 328 333 333 321 297 276 277
326 360 36 15 73 337 12 352 339 286 325 19 32 13 60 332 297 334 7 353 325 347 23 29 43 24 23 21 18 22 34 16 14 332 265 271 280 283 284 278 269 262 251 244 254 256 269 275 257 270 273 272 270 263
347 41 355 32 4 276 61 57 52 62 355 42 7 341 328 40 62 19 5 7 31 37 23 24 25 3 350 339 334 297 274 290 310 316 300 298 280 269 273 276 273 258 261 267 260 258 256 258 269 267 269 270 271 272
324 355 325 344 5 25 6 342 182 110 76 67 43 15 40 42 82 340 304 80 64 350 351 335 321 317 319 309 285 298 318 293 298 322 322 319 318 316 318 297 285 305 302 290 287 274 272 266 268 267 267 266 269 269